Probability
0 0 0 0 1 3 5 5 4 2 2 1 0 0 0 0 0 0 0 0 0 0 0 0 1 1 1 2 2 1 0 0 1 0 0 0 0 0 0 0 0 0 0 0
0 0 1 1 2 4 5 5 3 1 1 0 0 0 0 0 0 0 0 0 0 0 0 2 4 4 5 5 4 2 0 0 1 0 0 0 0 0 0 0 0 0 0 0
0 0 2 3 3 3 3 2 1 0 0 0 0 0 0 0 0 0 0 0 0 0 1 3 6 9 9 7 4 2 0 0 0 0 0 0 0 0 0 0 0 0 0 0
0 0 2 4 2 0 0 0 0 0 0 0 0 0 0 0 0 0 0 0 0 0 1 3 6 9 8 4 1 0 0 0 0 0 0 0 0 0 1 0 0 0 0 0
0 0 1 2 1 0 0 0 0 0 0 0 0 0 0 0 0 0 0 0 0 0 1 4 7 8 6 2 0 0 0 0 0 0 0 0 1 1 1 0 0 0 0 0
0 0 0 0 0 0 0 0 0 0 0 0 0 0 0 0 0 0 0 0 0 1 2 5 9 9 6 2 0 0 0 0 1 2 2 2 2 1 0 0 0 0 0 0
0 0 0 0 0 0 0 0 0 0 0 0 0 0 0 0 0 0 0 0 1 2 5 9 11 11 6 3 1 1 1 1 2 4 4 3 2 1 0 0 0 0 0 0
0 0 0 0 0 0 0 0 0 0 0 0 0 0 0 0 0 0 0 0 1 2 6 11 12 9 6 4 3 2 1 1 2 3 2 1 1 0 0 0 0 0 0 0
0 0 0 0 0 0 0 0 0 0 0 0 0 0 0 0 0 0 0 0 0 1 3 6 8 6 4 3 2 1 1 0 1 1 0 0 0 0 0 0 0 0 0 0
0 0 0 0 0 0 0 0 0 0 0 0 0 0 0 0 0 0 0 0 0 0 0 1 3 3 2 2 1 0 0 0 0 0 0 0 0 0 0 0 0 0 0 0
0 0 0 0 0 0 0 0 0 0 0 0 0 0 0 0 0 0 0 0 0 0 0 0 1 1 1 1 1 0 0 0 0 0 0 0 0 0 0 0 0 0 0 0
0 0 0 0 0 0 0 0 0 0 0 0 0 0 0 0 0 0 0 0 0 0 0 0 0 0 0 0 0 0 0 0 0 0 0 0 0 0 0 0 0 0 0 0
0 0 0 0 0 0 0 0 0 0 0 0 0 0 0 0 0 0 0 0 0 0 0 0 0 0 0 0 0 0 0 0 0 0 0 0 0 0 0 0 0 0 0 0
0 0 0 0 0 0 0 0 0 0 0 0 0 0 0 0 0 0 0 0 0 0 0 0 0 0 0 0 0 0 0 0 0 0 0 0 0 0 0 0 0 0 0 0
0 0 0 0 0 0 0 0 0 0 0 0 0 0 0 0 0 0 0 0 0 0 0 0 0 0 0 0 0 0 0 0 0 0 0 0 0 0 0 0 0 0 0 0
0 0 0 0 0 0 0 0 0 0 0 0 0 0 0 0 0 0 0 0 0 0 0 0 0 0 0 0 0 0 0 0 0 0 0 0 0 0 0 0 0 0 0 0
0 0 0 0 0 0 0 0 0 0 0 0 0 0 0 0 0 0 0 0 0 0 0 0 0 0 0 0 0 0 0 0 0 0 0 0 0 0 0 0 0 0 0 0
0 0 0 0 0 0 0 0 0 0 0 0 0 0 0 0 0 0 0 0 0 0 0 0 0 0 0 0 0 0 0 0 0 0 0 0 0 0 0 0 0 0 0 0
0 0 0 0 0 0 0 0 0 0 0 0 0 0 0 0 0 0 0 0 0 0 0 0 0 0 0 0 0 0 0 0 0 0 0 0 0 0 0 0 0 0 0 0
0 0 0 0 0 0 0 0 0 0 0 0 0 0 0 0 0 0 0 0 0 0 0 0 0 0 0 0 0 0 0 0 0 0 0 0 0 0 0 0 0 0 0 0
0 0 0 0 0 0 0 0 0 0 0 0 0 0 0 0 0 0 0 0 0 0 0 0 0 0 0 0 0 0 0 0 0 0 0 0 0 0 0 0 0 0 0 0
0 0 0 0 0 0 0 0 0 0 0 0 0 0 0 0 0 0 0 0 0 0 0 0 0 0 0 0 0 0 0 0 0 0 0 0 0 0 0 0 0 0 0 0
0 0 0 0 0 0 0 0 0 0 0 0 0 0 0 0 0 0 0 0 0 0 0 0 0 0 0 0 0 0 0 0 0 0 0 0 0 0 0 0 0 0 0 0
0 0 0 0 0 0 0 0 0 0 0 0 0 0 0 0 0 0 0 0 0 0 0 0 0 0 0 0 0 0 0 0 0 0 0 0 0 0 0 0 0 0 0 0
0 0 0 0 0 0 0 0 0 0 0 0 0 0 0 0 0 0 0 0 0 0 0 0 0 0 0 0 0 0 0 0 0 0 0 0 0 0 0 0 0 0 0 0
0 0 0 0 0 0 0 0 0 0 0 0 0 0 0 0 0 0 0 0 0 0 0 0 0 0 0 0 0 0 0 0 0 0 0 0 0 0 0 0 0 0 0 0
0 0 0 0 0 0 0 0 0 0 0 0 0 0 0 0 0 0 0 0 0 0 0 0 0 0 0 0 0 0 0 0 0 0 0 0 0 0 0 0 0 0 0 0
Wind_Speed
15 17 15 12 10 9 8 9 10 11 7 4 3 6 8 10 11 14 15 14 11 9 8 9 9 9 9 10 9 9 9 9 9 10 10 10 10 10 9 9 10 8 8 9
16 16 13 8 9 9 9 10 11 13 8 4 6 8 11 13 16 18 17 12 10 11 10 9 9 9 9 8 8 8 9 10 9 9 10 10 10 10 10 10 9 9 8 8
14 14 12 5 11 10 10 10 11 13 10 10 10 12 14 16 19 17 12 13 13 13 11 9 10 8 9 8 8 8 9 9 9 9 10 10 11 10 9 9 9 9 8 8
12 12 7 8 8 9 10 10 13 11 10 12 14 16 17 17 14 15 17 18 16 14 13 12 10 9 9 11 9 9 9 10 10 9 10 9 9 9 8 7 8 7 8 8
7 11 3 6 7 9 11 12 11 11 14 17 19 19 16 15 18 18 18 16 14 15 16 12 12 11 11 11 12 12 12 10 10 9 9 9 9 8 7 7 7 7 8 9
9 11 9 6 7 9 12 6 11 15 18 19 21 18 15 18 19 18 16 15 15 16 16 13 11 10 11 14 13 12 12 10 10 9 9 10 9 8 8 7 7 8 9 8
9 10 5 7 12 14 11 11 16 17 18 19 18 18 19 21 19 18 16 16 15 14 12 10 11 10 12 13 13 12 11 10 9 9 9 10 9 8 8 8 9 8 9 8
8 9 5 10 12 10 10 12 15 17 19 20 20 21 21 21 19 19 19 18 18 13 11 10 10 11 12 12 11 11 11 11 10 10 12 12 8 7 7 7 8 8 8 9
6 7 6 7 8 9 12 15 16 18 20 20 21 22 22 21 19 19 19 16 15 16 14 11 11 11 13 13 12 12 12 12 11 12 10 10 10 9 9 8 8 9 7 7
6 7 8 9 11 13 15 16 18 19 20 21 22 22 22 20 17 17 17 16 16 16 16 14 12 13 13 13 12 12 13 12 11 11 12 11 8 8 8 8 8 7 6 5
9 10 10 11 14 16 17 18 19 20 20 21 22 22 21 18 16 16 17 16 15 15 16 17 15 14 15 14 13 13 13 12 12 11 11 10 9 8 9 8 7 6 5 4
8 10 11 14 15 17 18 19 19 21 21 21 20 20 20 19 17 17 18 17 17 18 18 18 17 17 16 14 14 13 12 12 10 9 8 8 8 9 11 11 10 9 8 5
7 10 12 14 16 17 18 20 20 21 21 21 20 19 20 19 18 18 19 19 19 19 19 19 18 18 17 15 14 13 12 11 9 8 8 8 8 8 8 8 9 10 9 9
7 10 13 13 15 17 18 20 20 21 20 20 19 19 19 19 19 19 19 19 19 19 20 19 19 18 17 15 14 13 12 13 11 9 8 8 8 8 8 7 6 5 7 10
9 11 13 14 15 17 18 19 20 20 20 20 19 19 19 20 20 20 19 19 19 19 20 19 18 18 16 14 14 13 11 9 8 8 8 8 8 8 7 7 6 5 4 6
10 12 13 14 16 18 19 20 20 20 20 20 19 20 20 19 19 20 19 19 19 20 19 18 17 16 15 14 13 10 9 13 11 7 7 7 7 7 7 6 5 5 6 6
11 12 14 15 16 18 19 19 19 19 19 20 20 20 20 21 20 19 20 19 18 18 17 16 16 15 15 13 11 8 7 7 10 8 6 6 6 7 6 6 6 6 5 7
9 11 12 14 15 17 17 18 18 19 19 19 20 20 20 20 20 20 21 20 19 17 16 15 16 16 14 12 9 7 5 5 4 5 5 5 5 5 5 5 6 6 5 8
9 11 12 14 15 15 16 16 17 18 18 18 18 19 19 19 18 19 19 19 18 17 16 17 20 16 12 11 11 6 5 4 4 4 4 4 5 4 5 5 5 5 6 8
9 11 12 14 14 14 15 15 17 16 17 18 18 18 19 19 19 19 18 16 13 13 16 19 17 12 10 9 12 6 5 4 3 2 3 4 4 5 5 5 5 6 7 8
9 11 12 13 14 14 14 15 15 16 17 18 17 18 18 18 19 18 16 14 15 17 18 18 12 10 10 11 11 6 4 2 1 1 2 2 3 4 5 5 5 6 7 7
8 9 11 12 13 13 13 13 14 16 17 17 17 17 17 17 18 17 15 12 15 18 15 11 11 13 15 14 7 5 3 2 1 0 1 1 2 3 4 5 6 7 7 7
7 8 10 11 12 13 13 12 14 14 16 16 16 16 17 15 13 14 15 14 14 19 15 11 15 20 19 10 6 4 3 2 1 1 1 2 2 4 5 6 7 7 7 7
6 8 9 9 11 11 12 13 13 12 14 14 15 15 14 13 13 12 11 16 19 19 13 13 18 19 16 7 6 4 2 2 1 1 1 2 3 4 5 6 7 7 7 9
6 7 8 8 9 9 10 12 12 12 14 12 15 16 13 11 12 13 13 16 19 17 13 14 17 17 12 8 7 6 4 4 3 2 2 3 4 5 5 6 6 6 7 7
5 6 5 5 5 6 8 9 9 10 11 12 12 12 12 12 13 13 12 15 19 17 13 11 13 12 11 10 9 8 7 5 4 2 3 3 4 5 5 5 8 6 7 7
5 4 3 4 6 7 8 8 9 9 10 12 12 12 13 13 13 14 15 14 13 13 12 11 11 11 10 10 10 9 7 6 5 4 2 2 3 4 5 6 6 6 6 6
Wind_Direction
309 307 310 312 326 344 356 353 338 343 360 48 28 341 330 323 319 314 309 307 306 302 291 280 276 273 272 269 267 265 265 263 260 259 259 259 261 262 263 266 273 275 284 293
305 306 312 332 19 14 6 354 341 332 342 38 350 334 330 327 321 311 310 317 319 309 300 296 294 292 289 285 279 273 270 270 268 263 262 260 259 258 258 259 262 264 269 281
305 309 308 34 30 14 356 348 340 327 340 355 339 332 327 323 311 313 334 331 318 312 310 308 304 297 292 292 288 283 279 279 276 272 269 264 266 265 259 260 264 268 270 274
301 312 334 69 40 15 344 336 338 340 356 346 329 325 321 311 325 342 330 321 317 313 310 304 301 297 292 293 288 284 282 281 280 280 279 276 272 271 270 270 272 275 275 274
316 330 24 103 39 6 338 326 21 5 341 330 328 318 310 329 339 326 318 315 313 310 307 302 297 293 290 289 288 284 283 279 279 278 279 278 278 277 277 275 276 273 273 267
314 320 339 60 23 344 316 305 24 346 334 329 323 316 320 328 319 313 315 313 308 305 302 298 295 293 289 289 286 283 282 277 276 274 275 275 274 275 277 275 272 271 268 264
331 318 46 30 355 342 324 339 343 331 325 322 321 313 312 315 316 316 312 309 306 303 300 298 296 291 288 288 285 283 281 276 273 271 270 269 264 262 264 267 271 273 274 270
336 322 25 9 355 354 328 326 325 325 323 319 315 313 314 315 315 313 311 309 309 306 301 297 298 297 294 292 292 291 289 286 281 277 277 279 273 270 266 264 267 266 262 264
331 326 354 360 345 342 340 331 327 323 320 318 316 316 315 314 312 312 312 313 314 312 308 306 305 302 299 298 297 293 288 284 282 281 278 275 272 270 267 260 257 260 258 257
316 321 345 346 350 347 339 329 323 322 320 319 316 314 313 313 314 315 317 318 317 313 310 308 307 303 297 295 292 287 284 283 281 278 274 270 265 263 262 260 258 255 255 257
314 353 345 341 346 337 328 327 324 321 319 317 315 315 317 317 319 321 319 318 318 315 311 308 306 302 300 297 291 286 284 282 279 274 272 268 264 257 256 254 249 247 253 247
336 348 328 328 334 329 329 326 323 321 319 319 320 321 323 323 323 321 322 322 319 315 312 310 307 303 299 296 291 286 283 280 274 269 267 266 265 267 255 247 249 238 230 229
338 334 325 324 325 329 325 325 324 322 322 325 328 328 327 325 324 325 323 320 318 315 311 307 304 301 298 296 291 282 276 274 269 266 263 260 258 258 263 252 238 228 219 211
340 333 324 325 327 328 328 325 324 324 327 329 329 330 329 327 326 324 321 318 315 311 307 304 302 299 298 295 289 282 277 272 267 259 256 253 249 247 249 248 239 226 216 207
340 331 322 325 327 329 328 327 328 329 331 332 334 333 332 329 325 321 319 317 314 310 308 306 303 301 299 294 289 285 278 269 262 256 250 248 246 244 243 243 237 226 199 184
327 325 326 329 329 329 330 332 331 331 334 334 335 335 333 327 322 320 320 319 316 313 312 308 304 304 303 298 292 284 273 267 263 254 245 242 238 237 233 229 222 215 204 178
326 327 330 331 330 331 332 333 332 333 334 336 336 335 331 327 325 324 323 321 317 313 311 310 310 313 311 305 300 290 278 268 260 251 239 236 234 230 221 212 209 207 200 172
325 325 331 332 332 331 332 334 334 336 337 337 337 334 331 330 328 326 324 322 320 318 320 321 322 321 316 313 308 298 286 267 253 248 240 230 225 218 207 203 203 199 169 155
328 333 336 336 334 335 334 334 337 338 338 338 338 335 331 329 328 325 324 324 324 325 328 328 323 321 321 323 320 306 298 284 266 247 227 209 212 206 193 194 195 183 162 158
333 337 338 336 337 337 335 338 337 337 340 340 338 334 332 332 331 329 327 324 325 327 326 325 323 324 327 332 329 317 309 293 272 235 211 199 194 188 188 187 179 167 161 166
335 338 338 336 337 337 339 338 337 340 342 342 340 336 334 332 332 332 330 328 331 333 330 324 327 334 337 332 317 312 316 321 298 244 196 178 180 181 175 171 165 159 159 162
339 338 336 335 335 336 335 336 342 344 344 343 340 339 338 336 335 334 331 331 328 330 330 328 335 336 332 324 316 317 320 330 342 80 131 154 160 159 157 157 154 154 156 159
337 334 331 330 333 328 330 342 348 348 345 343 343 344 342 338 336 335 334 332 331 330 330 333 333 332 330 325 322 324 333 350 28 81 126 151 150 146 146 146 145 148 152 161
326 327 322 327 327 327 339 346 349 348 345 344 347 348 345 340 337 337 329 327 333 333 335 336 334 334 332 332 338 343 357 13 45 130 151 149 141 138 141 143 144 149 158 166
317 313 314 328 329 337 341 347 348 349 348 349 349 351 350 345 339 335 334 335 340 341 343 342 343 342 347 350 355 357 9 23 29 51 96 117 131 136 138 141 146 153 159 160
292 293 319 321 333 342 348 350 346 349 351 351 348 351 349 347 344 342 340 342 346 345 348 350 351 351 355 357 359 4 10 19 35 64 98 108 118 126 137 145 151 152 152 151
272 296 318 334 356 1 354 349 348 354 358 353 347 351 352 351 349 347 348 348 349 350 351 354 354 355 358 2 4 8 12 12 10 16 47 96 116 126 137 140 135 135 139 146